Year,Month,Day,Hour,Minute,Value (Times are PST for temperature in C)
2020,02,01,00,00,10.10
2020,02,01,00,01,10.10
2020,02,01,00,02,10.10
2020,02,01,00,03,10.10
2020,02,01,00,04,10.10
2020,02,01,00,05,10.10
2020,02,01,00,06,10.10
2020,02,01,00,07,10.10
2020,02,01,00,08,10.10
2020,02,01,00,09,10.10
2020,02,01,00,10,10.10
2020,02,01,00,11,10.10
2020,02,01,00,12,10.10
2020,02,01,00,13,10.10
2020,02,01,00,14,10.20
2020,02,01,00,15,10.20
2020,02,01,00,16,10.20
2020,02,01,00,17,10.20
2020,02,01,00,18,10.20
2020,02,01,00,19,10.20
2020,02,01,00,20,10.20
2020,02,01,00,21,10.20
2020,02,01,00,22,10.20
2020,02,01,00,23,10.20
2020,02,01,00,24,10.20
2020,02,01,00,25,10.20
2020,02,01,00,26,10.20
2020,02,01,00,27,10.20
2020,02,01,00,28,10.20
2020,02,01,00,29,10.20
2020,02,01,00,30,10.30
2020,02,01,00,31,10.30
2020,02,01,00,32,10.30
2020,02,01,00,33,10.30
2020,02,01,00,34,10.30
2020,02,01,00,35,10.30
2020,02,01,00,36,10.30
2020,02,01,00,37,10.30
2020,02,01,00,38,10.30
2020,02,01,00,39,10.30
2020,02,01,00,40,10.30
2020,02,01,00,41,10.30
2020,02,01,00,42,10.30
2020,02,01,00,43,10.30
2020,02,01,00,44,10.30
2020,02,01,00,45,10.30
2020,02,01,00,46,10.30
2020,02,01,00,47,10.30
2020,02,01,00,48,10.30
2020,02,01,00,49,10.30
2020,02,01,00,50,10.30
2020,02,01,00,51,10.40
2020,02,01,00,52,10.40
2020,02,01,00,53,10.40
2020,02,01,00,54,10.40
2020,02,01,00,55,10.40
2020,02,01,00,56,10.40
2020,02,01,00,57,10.40
2020,02,01,00,58,10.40
2020,02,01,00,59,10.40
2020,02,01,01,00,10.30
2020,02,01,01,01,10.30
2020,02,01,01,02,10.30
2020,02,01,01,03,10.40
2020,02,01,01,04,10.40
2020,02,01,01,05,10.40
2020,02,01,01,06,10.40
2020,02,01,01,07,10.40
2020,02,01,01,08,10.40
2020,02,01,01,09,10.40
2020,02,01,01,10,10.40
2020,02,01,01,11,10.40
2020,02,01,01,12,10.40
2020,02,01,01,13,10.40
2020,02,01,01,14,10.40
2020,02,01,01,15,10.40
2020,02,01,01,16,10.40
2020,02,01,01,17,10.40
2020,02,01,01,18,10.40
2020,02,01,01,19,10.40
2020,02,01,01,20,10.40
2020,02,01,01,21,10.50
2020,02,01,01,22,10.60
2020,02,01,01,23,10.70
2020,02,01,01,24,10.70
2020,02,01,01,25,10.70
2020,02,01,01,26,10.80
2020,02,01,01,27,10.80
2020,02,01,01,28,10.90
2020,02,01,01,29,10.90
2020,02,01,01,30,11.00
2020,02,01,01,31,11.00
2020,02,01,01,32,11.10
2020,02,01,01,33,11.10
2020,02,01,01,34,11.20
2020,02,01,01,35,11.20
2020,02,01,01,36,11.20
2020,02,01,01,37,11.30
2020,02,01,01,38,11.30
2020,02,01,01,39,11.30
2020,02,01,01,40,11.30
2020,02,01,01,41,11.30
2020,02,01,01,42,11.30
2020,02,01,01,43,11.30
2020,02,01,01,44,11.30
2020,02,01,01,45,11.30
2020,02,01,01,46,11.30
2020,02,01,01,47,11.30
2020,02,01,01,48,11.40
2020,02,01,01,49,11.40
2020,02,01,01,50,11.40
2020,02,01,01,51,11.50
2020,02,01,01,52,11.50
2020,02,01,01,53,11.50
2020,02,01,01,54,11.50
2020,02,01,01,55,11.50
2020,02,01,01,56,11.50
2020,02,01,01,57,11.40
2020,02,01,01,58,11.40
2020,02,01,01,59,11.40
2020,02,01,02,00,11.40
2020,02,01,02,01,11.40
2020,02,01,02,02,11.40
2020,02,01,02,03,11.40
2020,02,01,02,04,11.30
2020,02,01,02,05,11.30
2020,02,01,02,06,11.20
2020,02,01,02,07,11.10
2020,02,01,02,08,11.10
2020,02,01,02,09,11.10
2020,02,01,02,10,11.20
2020,02,01,02,11,11.30
2020,02,01,02,12,11.30
2020,02,01,02,13,11.30
2020,02,01,02,14,11.40
2020,02,01,02,15,11.40
2020,02,01,02,16,11.40
2020,02,01,02,17,11.40
2020,02,01,02,18,11.40
2020,02,01,02,19,11.40
2020,02,01,02,20,11.40
2020,02,01,02,21,11.40
2020,02,01,02,22,11.30
2020,02,01,02,23,11.30
2020,02,01,02,24,11.30
2020,02,01,02,25,11.30
2020,02,01,02,26,11.20
2020,02,01,02,27,11.20
2020,02,01,02,28,11.20
2020,02,01,02,29,11.10
2020,02,01,02,30,11.10
2020,02,01,02,31,11.10
2020,02,01,02,32,11.00
2020,02,01,02,33,11.00
2020,02,01,02,34,10.90
2020,02,01,02,35,10.90
2020,02,01,02,36,10.90
2020,02,01,02,37,10.90
2020,02,01,02,38,10.80
2020,02,01,02,39,10.80
2020,02,01,02,40,10.80
2020,02,01,02,41,10.70
2020,02,01,02,42,10.70
2020,02,01,02,43,10.70
2020,02,01,02,44,10.70
2020,02,01,02,45,10.70
2020,02,01,02,46,10.60
2020,02,01,02,47,10.60
2020,02,01,02,48,10.60
2020,02,01,02,49,10.60
2020,02,01,02,50,10.60
2020,02,01,02,51,10.60
2020,02,01,02,52,10.60
2020,02,01,02,53,10.60
2020,02,01,02,54,10.60
2020,02,01,02,55,10.60
2020,02,01,02,56,10.60
2020,02,01,02,57,10.60
2020,02,01,02,58,10.60
2020,02,01,02,59,10.60
2020,02,01,03,00,10.60
2020,02,01,03,01,10.60
2020,02,01,03,02,10.60
2020,02,01,03,03,10.60
2020,02,01,03,04,10.60
2020,02,01,03,05,10.60
2020,02,01,03,06,10.60
2020,02,01,03,07,10.60
2020,02,01,03,08,10.60
2020,02,01,03,09,10.60
2020,02,01,03,10,10.60
2020,02,01,03,11,10.60
2020,02,01,03,12,10.60
2020,02,01,03,13,10.60
2020,02,01,03,14,10.60
2020,02,01,03,15,10.60
2020,02,01,03,16,10.60
2020,02,01,03,17,10.60
2020,02,01,03,18,10.60
2020,02,01,03,19,10.60
2020,02,01,03,20,10.60
2020,02,01,03,21,10.60
2020,02,01,03,22,10.60
2020,02,01,03,23,10.60
2020,02,01,03,24,10.60
2020,02,01,03,25,10.60
2020,02,01,03,26,10.60
2020,02,01,03,27,10.60
2020,02,01,03,28,10.60
2020,02,01,03,29,10.60
2020,02,01,03,30,10.60
2020,02,01,03,31,10.60
2020,02,01,03,32,10.60
2020,02,01,03,33,10.60
2020,02,01,03,34,10.60
2020,02,01,03,35,10.70
2020,02,01,03,36,10.70
2020,02,01,03,37,10.70
2020,02,01,03,38,10.70
2020,02,01,03,39,10.70
2020,02,01,03,40,10.70
2020,02,01,03,41,10.70
2020,02,01,03,42,10.60
2020,02,01,03,43,10.60
2020,02,01,03,44,10.60
2020,02,01,03,45,10.60
2020,02,01,03,46,10.60
2020,02,01,03,47,10.60
2020,02,01,03,48,10.60
2020,02,01,03,49,10.60
2020,02,01,03,50,10.60
2020,02,01,03,51,10.60
2020,02,01,03,52,10.60
2020,02,01,03,53,10.60
2020,02,01,03,54,10.60
2020,02,01,03,55,10.60
2020,02,01,03,56,10.60
2020,02,01,03,57,10.60
2020,02,01,03,58,10.70
2020,02,01,03,59,10.70
2020,02,01,04,00,10.70
2020,02,01,04,01,10.70
2020,02,01,04,02,10.70
2020,02,01,04,03,10.70
2020,02,01,04,04,10.60
2020,02,01,04,05,10.60
2020,02,01,04,06,10.60
2020,02,01,04,07,10.60
2020,02,01,04,08,10.60
2020,02,01,04,09,10.50
2020,02,01,04,10,10.50
2020,02,01,04,11,10.50
2020,02,01,04,12,10.50
2020,02,01,04,13,10.40
2020,02,01,04,14,10.40
2020,02,01,04,15,10.40
2020,02,01,04,16,10.40
2020,02,01,04,17,10.40
2020,02,01,04,18,10.40
2020,02,01,04,19,10.40
2020,02,01,04,20,10.40
2020,02,01,04,21,10.40
2020,02,01,04,22,10.40
2020,02,01,04,23,10.30
2020,02,01,04,24,10.30
2020,02,01,04,25,10.30
2020,02,01,04,26,10.30
2020,02,01,04,27,10.30
2020,02,01,04,28,10.30
2020,02,01,04,29,10.30
2020,02,01,04,30,10.30
2020,02,01,04,31,10.30
2020,02,01,04,32,10.30
2020,02,01,04,33,10.30
2020,02,01,04,34,10.30
2020,02,01,04,35,10.30
2020,02,01,04,36,10.30
2020,02,01,04,37,10.30
2020,02,01,04,38,10.40
2020,02,01,04,39,10.40
2020,02,01,04,40,10.40
2020,02,01,04,41,10.40
2020,02,01,04,42,10.40
2020,02,01,04,43,10.40
2020,02,01,04,44,10.40
2020,02,01,04,45,10.40
2020,02,01,04,46,10.40
2020,02,01,04,47,10.40
2020,02,01,04,48,10.40
2020,02,01,04,49,10.30
2020,02,01,04,50,10.30
2020,02,01,04,51,10.30
2020,02,01,04,52,10.30
2020,02,01,04,53,10.30
2020,02,01,04,54,10.30
2020,02,01,04,55,10.30
2020,02,01,04,56,10.30
2020,02,01,04,57,10.30
2020,02,01,04,58,10.30
2020,02,01,04,59,10.30
2020,02,01,05,00,10.40
2020,02,01,05,01,10.50
2020,02,01,05,02,10.50
2020,02,01,05,03,10.50
2020,02,01,05,04,10.50
2020,02,01,05,05,10.50
2020,02,01,05,06,10.50
2020,02,01,05,07,10.50
2020,02,01,05,08,10.50
2020,02,01,05,09,10.50
2020,02,01,05,10,10.50
2020,02,01,05,11,10.50
2020,02,01,05,12,10.50
2020,02,01,05,13,10.50
2020,02,01,05,14,10.60
2020,02,01,05,15,10.60
2020,02,01,05,16,10.50
2020,02,01,05,17,10.50
2020,02,01,05,18,10.50
2020,02,01,05,19,10.50
2020,02,01,05,20,10.50
2020,02,01,05,21,10.40
2020,02,01,05,22,10.50
2020,02,01,05,23,10.50
2020,02,01,05,24,10.60
2020,02,01,05,25,10.60
2020,02,01,05,26,10.60
2020,02,01,05,27,10.60
2020,02,01,05,28,10.60
2020,02,01,05,29,10.60
2020,02,01,05,30,10.60
2020,02,01,05,31,10.60
2020,02,01,05,32,10.60
2020,02,01,05,33,10.50
2020,02,01,05,34,10.50
2020,02,01,05,35,10.40
2020,02,01,05,36,10.40
2020,02,01,05,37,10.40
2020,02,01,05,38,10.40
2020,02,01,05,39,10.40
2020,02,01,05,40,10.40
2020,02,01,05,41,10.40
2020,02,01,05,42,10.30
2020,02,01,05,43,10.30
2020,02,01,05,44,10.30
2020,02,01,05,45,10.30
2020,02,01,05,46,10.30
2020,02,01,05,47,10.30
2020,02,01,05,48,10.20
2020,02,01,05,49,10.20
2020,02,01,05,50,10.20
2020,02,01,05,51,10.20
2020,02,01,05,52,10.10
2020,02,01,05,53,10.10
2020,02,01,05,54,10.10
2020,02,01,05,55,10.10
2020,02,01,05,56,10.10
2020,02,01,05,57,10.10
2020,02,01,05,58,10.00
2020,02,01,05,59,10.00
2020,02,01,06,00,9.90
2020,02,01,06,01,9.90
2020,02,01,06,02,9.90
2020,02,01,06,03,9.90
2020,02,01,06,04,9.90
2020,02,01,06,05,9.90
2020,02,01,06,06,9.90
2020,02,01,06,07,9.90
2020,02,01,06,08,9.90
2020,02,01,06,09,9.90
2020,02,01,06,10,9.90
2020,02,01,06,11,9.90
2020,02,01,06,12,9.90
2020,02,01,06,13,9.90
2020,02,01,06,14,9.90
2020,02,01,06,15,9.90
2020,02,01,06,16,9.80
2020,02,01,06,17,9.80
2020,02,01,06,18,9.80
2020,02,01,06,19,9.70
2020,02,01,06,20,9.70
2020,02,01,06,21,9.70
2020,02,01,06,22,9.70
2020,02,01,06,23,9.60
2020,02,01,06,24,9.60
2020,02,01,06,25,9.60
2020,02,01,06,26,9.50
2020,02,01,06,27,9.50
2020,02,01,06,28,9.50
2020,02,01,06,29,9.40
2020,02,01,06,30,9.40
2020,02,01,06,31,9.40
2020,02,01,06,32,9.30
2020,02,01,06,33,9.30
2020,02,01,06,34,9.30
2020,02,01,06,35,9.20
2020,02,01,06,36,9.20
2020,02,01,06,37,9.20
2020,02,01,06,38,9.20
2020,02,01,06,39,9.30
2020,02,01,06,40,9.30
2020,02,01,06,41,9.20
2020,02,01,06,42,9.20
2020,02,01,06,43,9.20
2020,02,01,06,44,9.20
2020,02,01,06,45,9.20
2020,02,01,06,46,9.10
2020,02,01,06,47,9.10
2020,02,01,06,48,9.10
2020,02,01,06,49,9.10
2020,02,01,06,50,9.10
2020,02,01,06,51,9.10
2020,02,01,06,52,9.00
2020,02,01,06,53,9.00
2020,02,01,06,54,8.90
2020,02,01,06,55,9.00
2020,02,01,06,56,9.00
2020,02,01,06,57,9.00
2020,02,01,06,58,8.90
2020,02,01,06,59,8.90
2020,02,01,07,00,8.90
2020,02,01,07,01,8.90
2020,02,01,07,02,8.90
2020,02,01,07,03,8.90
2020,02,01,07,04,8.90
2020,02,01,07,05,8.90
2020,02,01,07,06,8.90
2020,02,01,07,07,8.90
2020,02,01,07,08,8.80
2020,02,01,07,09,8.80
2020,02,01,07,10,8.80
2020,02,01,07,11,8.80
2020,02,01,07,12,8.80
2020,02,01,07,13,8.80
2020,02,01,07,14,8.70
2020,02,01,07,15,8.70
2020,02,01,07,16,8.70
2020,02,01,07,17,8.70
2020,02,01,07,18,8.70
2020,02,01,07,19,8.60
2020,02,01,07,20,8.60
2020,02,01,07,21,8.60
2020,02,01,07,22,8.50
2020,02,01,07,23,8.50
2020,02,01,07,24,8.50
2020,02,01,07,25,8.50
2020,02,01,07,26,8.50
2020,02,01,07,27,8.50
2020,02,01,07,28,8.50
2020,02,01,07,29,8.50
2020,02,01,07,30,8.50
2020,02,01,07,31,8.50
2020,02,01,07,32,8.50
2020,02,01,07,33,8.50
2020,02,01,07,34,8.50
2020,02,01,07,35,8.50
2020,02,01,07,36,8.50
2020,02,01,07,37,8.40
2020,02,01,07,38,8.40
2020,02,01,07,39,8.40
2020,02,01,07,40,8.40
2020,02,01,07,41,8.40
2020,02,01,07,42,8.40
2020,02,01,07,43,8.40
2020,02,01,07,44,8.40
2020,02,01,07,45,8.40
2020,02,01,07,46,8.30
2020,02,01,07,47,8.30
2020,02,01,07,48,8.30
2020,02,01,07,49,8.30
2020,02,01,07,50,8.30
2020,02,01,07,51,8.30
2020,02,01,07,52,8.30
2020,02,01,07,53,8.30
2020,02,01,07,54,8.30
2020,02,01,07,55,8.30
2020,02,01,07,56,8.30
2020,02,01,07,57,8.30
2020,02,01,07,58,8.30
2020,02,01,07,59,8.30
2020,02,01,08,00,8.30
2020,02,01,08,01,8.30
2020,02,01,08,02,8.30
2020,02,01,08,03,8.30
2020,02,01,08,04,8.30
2020,02,01,08,05,8.30
2020,02,01,08,06,8.20
2020,02,01,08,07,8.20
2020,02,01,08,08,8.20
2020,02,01,08,09,8.20
2020,02,01,08,10,8.20
2020,02,01,08,11,8.20
2020,02,01,08,12,8.20
2020,02,01,08,13,8.10
2020,02,01,08,14,8.10
2020,02,01,08,15,8.10
2020,02,01,08,16,8.10
2020,02,01,08,17,8.10
2020,02,01,08,18,8.10
2020,02,01,08,19,8.10
2020,02,01,08,20,8.10
2020,02,01,08,21,8.10
2020,02,01,08,22,8.00
2020,02,01,08,23,8.00
2020,02,01,08,24,8.00
2020,02,01,08,25,8.00
2020,02,01,08,26,8.00
2020,02,01,08,27,8.00
2020,02,01,08,28,8.00
2020,02,01,08,29,8.00
2020,02,01,08,30,8.00
2020,02,01,08,31,8.00
2020,02,01,08,32,8.00
2020,02,01,08,33,8.00
2020,02,01,08,34,8.00
2020,02,01,08,35,8.00
2020,02,01,08,36,8.10
2020,02,01,08,37,8.10
2020,02,01,08,38,8.10
2020,02,01,08,39,8.10
2020,02,01,08,40,8.10
2020,02,01,08,41,8.10
2020,02,01,08,42,8.10
2020,02,01,08,43,8.10
2020,02,01,08,44,8.10
2020,02,01,08,45,8.10
2020,02,01,08,46,8.10
2020,02,01,08,47,8.00
2020,02,01,08,48,8.00
2020,02,01,08,49,8.00
2020,02,01,08,50,8.00
2020,02,01,08,51,8.00
2020,02,01,08,52,8.00
2020,02,01,08,53,8.00
2020,02,01,08,54,7.90
2020,02,01,08,55,7.90
2020,02,01,08,56,7.90
2020,02,01,08,57,7.90
2020,02,01,08,58,7.90
2020,02,01,08,59,7.90
2020,02,01,09,00,7.90
2020,02,01,09,01,7.80
2020,02,01,09,02,7.80
2020,02,01,09,03,7.80
2020,02,01,09,04,7.80
2020,02,01,09,05,7.80
2020,02,01,09,06,7.80
2020,02,01,09,07,7.80
2020,02,01,09,08,7.80
2020,02,01,09,09,7.80
2020,02,01,09,10,7.80
2020,02,01,09,11,7.80
2020,02,01,09,12,7.80
2020,02,01,09,13,7.80
2020,02,01,09,14,7.80
2020,02,01,09,15,7.80
2020,02,01,09,16,7.80
2020,02,01,09,17,7.80
2020,02,01,09,18,7.80
2020,02,01,09,19,7.80
2020,02,01,09,20,7.80
2020,02,01,09,21,7.80
2020,02,01,09,22,7.80
2020,02,01,09,23,7.80
2020,02,01,09,24,7.80
2020,02,01,09,25,7.80
2020,02,01,09,26,7.70
2020,02,01,09,27,7.70
2020,02,01,09,28,7.70
2020,02,01,09,29,7.70
2020,02,01,09,30,7.70
2020,02,01,09,31,7.70
2020,02,01,09,32,7.70
2020,02,01,09,33,7.70
2020,02,01,09,34,7.70
2020,02,01,09,35,7.70
2020,02,01,09,36,7.70
2020,02,01,09,37,7.70
2020,02,01,09,38,7.70
2020,02,01,09,39,7.70
2020,02,01,09,40,7.70
2020,02,01,09,41,7.70
2020,02,01,09,42,7.70
2020,02,01,09,43,7.70
2020,02,01,09,44,7.70
2020,02,01,09,45,7.70
2020,02,01,09,46,7.70
2020,02,01,09,47,7.70
2020,02,01,09,48,7.70
2020,02,01,09,49,7.70
2020,02,01,09,50,7.70
2020,02,01,09,51,7.70
2020,02,01,09,52,7.70
2020,02,01,09,53,7.70
2020,02,01,09,54,7.70
2020,02,01,09,55,7.70
2020,02,01,09,56,7.80
2020,02,01,09,57,7.80
2020,02,01,09,58,7.80
2020,02,01,09,59,7.80
2020,02,01,10,00,7.90
2020,02,01,10,01,7.90
2020,02,01,10,02,7.90
2020,02,01,10,03,8.00
2020,02,01,10,04,8.00
2020,02,01,10,05,8.00
2020,02,01,10,06,8.10
2020,02,01,10,07,8.10
2020,02,01,10,08,8.10
2020,02,01,10,09,8.10
2020,02,01,10,10,8.10
2020,02,01,10,11,8.20
2020,02,01,10,12,8.20
2020,02,01,10,13,8.20
2020,02,01,10,14,8.20
2020,02,01,10,15,8.20
2020,02,01,10,16,8.20
2020,02,01,10,17,8.20
2020,02,01,10,18,8.20
2020,02,01,10,19,8.20
2020,02,01,10,20,8.20
2020,02,01,10,21,8.30
2020,02,01,10,22,8.30
2020,02,01,10,23,8.30
2020,02,01,10,24,8.30
2020,02,01,10,25,8.20
2020,02,01,10,26,8.20
2020,02,01,10,27,8.20
2020,02,01,10,28,8.20
2020,02,01,10,29,8.20
2020,02,01,10,30,8.20
2020,02,01,10,31,8.20
2020,02,01,10,32,8.20
2020,02,01,10,33,8.20
2020,02,01,10,34,8.20
2020,02,01,10,35,8.20
2020,02,01,10,36,8.20
2020,02,01,10,37,8.20
2020,02,01,10,38,8.20
2020,02,01,10,39,8.20
2020,02,01,10,40,8.20
2020,02,01,10,41,8.20
2020,02,01,10,42,8.20
2020,02,01,10,43,8.20
2020,02,01,10,44,8.20
2020,02,01,10,45,8.20
2020,02,01,10,46,8.20
2020,02,01,10,47,8.10
2020,02,01,10,48,8.10
2020,02,01,10,49,8.10
2020,02,01,10,50,8.10
2020,02,01,10,51,8.10
2020,02,01,10,52,8.10
2020,02,01,10,53,8.10
2020,02,01,10,54,8.10
2020,02,01,10,55,8.10
2020,02,01,10,56,8.10
2020,02,01,10,57,8.10
2020,02,01,10,58,8.10
2020,02,01,10,59,8.10
2020,02,01,11,00,8.10
2020,02,01,11,01,8.10
2020,02,01,11,02,8.20
2020,02,01,11,03,8.20
2020,02,01,11,04,8.20
2020,02,01,11,05,8.20
2020,02,01,11,06,8.20
2020,02,01,11,07,8.20
2020,02,01,11,08,8.20
2020,02,01,11,09,8.20
2020,02,01,11,10,8.30
2020,02,01,11,11,8.30
2020,02,01,11,12,8.30
2020,02,01,11,13,8.30
2020,02,01,11,14,8.30
2020,02,01,11,15,8.40
2020,02,01,11,16,8.40
2020,02,01,11,17,8.40
2020,02,01,11,18,8.30
2020,02,01,11,19,8.30
2020,02,01,11,20,8.30
2020,02,01,11,21,8.30
2020,02,01,11,22,8.30
2020,02,01,11,23,8.30
2020,02,01,11,24,8.30
2020,02,01,11,25,8.30
2020,02,01,11,26,8.30
2020,02,01,11,27,8.30
2020,02,01,11,28,8.30
2020,02,01,11,29,8.40
2020,02,01,11,30,8.40
2020,02,01,11,31,8.40
2020,02,01,11,32,8.40
2020,02,01,11,33,8.40
2020,02,01,11,34,8.40
2020,02,01,11,35,8.40
2020,02,01,11,36,8.40
2020,02,01,11,37,8.40
2020,02,01,11,38,8.40
2020,02,01,11,39,8.40
2020,02,01,11,40,8.40
2020,02,01,11,41,8.50
2020,02,01,11,42,8.50
2020,02,01,11,43,8.50
2020,02,01,11,44,8.60
2020,02,01,11,45,8.60
2020,02,01,11,46,8.60
2020,02,01,11,47,8.60
2020,02,01,11,48,8.60
2020,02,01,11,49,8.60
2020,02,01,11,50,8.60
2020,02,01,11,51,8.60
2020,02,01,11,52,8.60
2020,02,01,11,53,8.60
2020,02,01,11,54,8.70
2020,02,01,11,55,8.60
2020,02,01,11,56,8.60
2020,02,01,11,57,8.60
2020,02,01,11,58,8.60
2020,02,01,11,59,8.70
2020,02,01,12,00,8.70
2020,02,01,12,01,8.70
2020,02,01,12,02,8.70
2020,02,01,12,03,8.70
2020,02,01,12,04,8.70
2020,02,01,12,05,8.70
2020,02,01,12,06,8.80
2020,02,01,12,07,8.80
2020,02,01,12,08,8.80
2020,02,01,12,09,8.80
2020,02,01,12,10,8.80
2020,02,01,12,11,8.80
2020,02,01,12,12,8.80
2020,02,01,12,13,8.80
2020,02,01,12,14,8.90
2020,02,01,12,15,8.90
2020,02,01,12,16,8.90
2020,02,01,12,17,8.90
2020,02,01,12,18,9.00
2020,02,01,12,19,9.00
2020,02,01,12,20,9.00
2020,02,01,12,21,9.00
2020,02,01,12,22,8.90
2020,02,01,12,23,8.90
2020,02,01,12,24,9.00
2020,02,01,12,25,9.00
2020,02,01,12,26,9.10
2020,02,01,12,27,9.10
2020,02,01,12,28,9.10
2020,02,01,12,29,9.10
2020,02,01,12,30,9.10
2020,02,01,12,31,9.10
2020,02,01,12,32,9.10
2020,02,01,12,33,9.10
2020,02,01,12,34,9.10
2020,02,01,12,35,9.10
2020,02,01,12,36,9.10
2020,02,01,12,37,9.00
2020,02,01,12,38,9.00
2020,02,01,12,39,9.00
2020,02,01,12,40,8.90
2020,02,01,12,41,8.80
2020,02,01,12,42,8.80
2020,02,01,12,43,8.80
2020,02,01,12,44,8.80
2020,02,01,12,45,8.80
2020,02,01,12,46,8.80
2020,02,01,12,47,8.80
2020,02,01,12,48,8.80
2020,02,01,12,49,8.70
2020,02,01,12,50,8.70
2020,02,01,12,51,8.60
2020,02,01,12,52,8.60
2020,02,01,12,53,8.50
2020,02,01,12,54,8.40
2020,02,01,12,55,8.40
2020,02,01,12,56,8.40
2020,02,01,12,57,8.40
2020,02,01,12,58,8.40
2020,02,01,12,59,8.30
2020,02,01,13,00,8.30
2020,02,01,13,01,8.30
2020,02,01,13,02,8.30
2020,02,01,13,03,8.20
2020,02,01,13,04,8.20
2020,02,01,13,05,8.20
2020,02,01,13,06,8.20
2020,02,01,13,07,8.20
2020,02,01,13,08,8.10
2020,02,01,13,09,8.10
2020,02,01,13,10,8.10
2020,02,01,13,11,8.10
2020,02,01,13,12,8.10
2020,02,01,13,13,8.00
2020,02,01,13,14,8.00
2020,02,01,13,15,8.00
2020,02,01,13,16,8.00
2020,02,01,13,17,8.00
2020,02,01,13,18,8.00
2020,02,01,13,19,8.00
2020,02,01,13,20,8.00
2020,02,01,13,21,8.00
2020,02,01,13,22,7.90
2020,02,01,13,23,8.00
2020,02,01,13,24,8.00
2020,02,01,13,25,8.10
2020,02,01,13,26,8.10
2020,02,01,13,27,8.10
2020,02,01,13,28,8.20
2020,02,01,13,29,8.20
2020,02,01,13,30,8.20
2020,02,01,13,31,8.30
2020,02,01,13,32,8.30
2020,02,01,13,33,8.40
2020,02,01,13,34,8.40
2020,02,01,13,35,8.40
2020,02,01,13,36,8.40
2020,02,01,13,37,8.40
2020,02,01,13,38,8.50
2020,02,01,13,39,8.50
2020,02,01,13,40,8.50
2020,02,01,13,41,8.50
2020,02,01,13,42,8.40
2020,02,01,13,43,8.40
2020,02,01,13,44,8.40
2020,02,01,13,45,8.40
2020,02,01,13,46,8.30
2020,02,01,13,47,8.30
2020,02,01,13,48,8.30
2020,02,01,13,49,8.30
2020,02,01,13,50,8.30
2020,02,01,13,51,8.40
2020,02,01,13,52,8.40
2020,02,01,13,53,8.50
2020,02,01,13,54,8.50
2020,02,01,13,55,8.50
2020,02,01,13,56,8.50
2020,02,01,13,57,8.40
2020,02,01,13,58,8.40
2020,02,01,13,59,8.40
2020,02,01,14,00,8.40
2020,02,01,14,01,8.40
2020,02,01,14,02,8.30
2020,02,01,14,03,8.30
2020,02,01,14,04,8.30
2020,02,01,14,05,8.30
2020,02,01,14,06,8.30
2020,02,01,14,07,8.30
2020,02,01,14,08,8.20
2020,02,01,14,09,8.20
2020,02,01,14,10,8.20
2020,02,01,14,11,8.20
2020,02,01,14,12,8.20
2020,02,01,14,13,8.20
2020,02,01,14,14,8.20
2020,02,01,14,15,8.20
2020,02,01,14,16,8.20
2020,02,01,14,17,8.20
2020,02,01,14,18,8.20
2020,02,01,14,19,8.20
2020,02,01,14,20,8.20
2020,02,01,14,21,8.20
2020,02,01,14,22,8.20
2020,02,01,14,23,8.10
2020,02,01,14,24,8.10
2020,02,01,14,25,8.10
2020,02,01,14,26,8.10
2020,02,01,14,27,8.00
2020,02,01,14,28,7.90
2020,02,01,14,29,7.90
2020,02,01,14,30,7.90
2020,02,01,14,31,7.80
2020,02,01,14,32,7.90
2020,02,01,14,33,7.90
2020,02,01,14,34,7.90
2020,02,01,14,35,7.90
2020,02,01,14,36,7.80
2020,02,01,14,37,7.80
2020,02,01,14,38,7.80
2020,02,01,14,39,7.80
2020,02,01,14,40,7.70
2020,02,01,14,41,7.70
2020,02,01,14,42,7.70
2020,02,01,14,43,7.70
2020,02,01,14,44,7.70
2020,02,01,14,45,7.70
2020,02,01,14,46,7.70
2020,02,01,14,47,7.70
2020,02,01,14,48,7.80
2020,02,01,14,49,7.70
2020,02,01,14,50,7.70
2020,02,01,14,51,7.70
2020,02,01,14,52,7.80
2020,02,01,14,53,7.80
2020,02,01,14,54,7.90
2020,02,01,14,55,7.90
2020,02,01,14,56,7.90
2020,02,01,14,57,7.80
2020,02,01,14,58,7.80
2020,02,01,14,59,7.80
2020,02,01,15,00,7.80
2020,02,01,15,01,7.80
2020,02,01,15,02,7.80
2020,02,01,15,03,7.80
2020,02,01,15,04,7.70
2020,02,01,15,05,7.70
2020,02,01,15,06,7.60
2020,02,01,15,07,7.60
2020,02,01,15,08,7.50
2020,02,01,15,09,7.50
2020,02,01,15,10,7.50
2020,02,01,15,11,7.40
2020,02,01,15,12,7.40
2020,02,01,15,13,7.40
2020,02,01,15,14,7.30
2020,02,01,15,15,7.30
2020,02,01,15,16,7.30
2020,02,01,15,17,7.40
2020,02,01,15,18,7.40
2020,02,01,15,19,7.40
2020,02,01,15,20,7.40
2020,02,01,15,21,7.40
2020,02,01,15,22,7.40
2020,02,01,15,23,7.40
2020,02,01,15,24,7.40
2020,02,01,15,25,7.50
2020,02,01,15,26,7.50
2020,02,01,15,27,7.50
2020,02,01,15,28,7.50
2020,02,01,15,29,7.50
2020,02,01,15,30,7.50
2020,02,01,15,31,7.40
2020,02,01,15,32,7.40
2020,02,01,15,33,7.40
2020,02,01,15,34,7.40
2020,02,01,15,35,7.40
2020,02,01,15,36,7.40
2020,02,01,15,37,7.30
2020,02,01,15,38,7.30
2020,02,01,15,39,7.30
2020,02,01,15,40,7.40
2020,02,01,15,41,7.40
2020,02,01,15,42,7.40
2020,02,01,15,43,7.40
2020,02,01,15,44,7.40
2020,02,01,15,45,7.40
2020,02,01,15,46,7.40
2020,02,01,15,47,7.40
2020,02,01,15,48,7.30
2020,02,01,15,49,7.30
2020,02,01,15,50,7.30
2020,02,01,15,51,7.30
2020,02,01,15,52,7.20
2020,02,01,15,53,7.20
2020,02,01,15,54,7.20
2020,02,01,15,55,7.20
2020,02,01,15,56,7.30
2020,02,01,15,57,7.20
2020,02,01,15,58,7.20
2020,02,01,15,59,7.20
2020,02,01,16,00,7.20
2020,02,01,16,01,7.10
2020,02,01,16,02,7.10
2020,02,01,16,03,7.10
2020,02,01,16,04,7.00
2020,02,01,16,05,7.00
2020,02,01,16,06,6.90
2020,02,01,16,07,6.90
2020,02,01,16,08,6.80
2020,02,01,16,09,6.80
2020,02,01,16,10,6.80
2020,02,01,16,11,6.70
2020,02,01,16,12,6.70
2020,02,01,16,13,6.70
2020,02,01,16,14,6.70
2020,02,01,16,15,6.70
2020,02,01,16,16,6.60
2020,02,01,16,17,6.60
2020,02,01,16,18,6.60
2020,02,01,16,19,6.60
2020,02,01,16,20,6.50
2020,02,01,16,21,6.50
2020,02,01,16,22,6.50
2020,02,01,16,23,6.40
2020,02,01,16,24,6.40
2020,02,01,16,25,6.40
2020,02,01,16,26,6.40
2020,02,01,16,27,6.40
2020,02,01,16,28,6.30
2020,02,01,16,29,6.30
2020,02,01,16,30,6.30
2020,02,01,16,31,6.30
2020,02,01,16,32,6.30
2020,02,01,16,33,6.30
2020,02,01,16,34,6.30
2020,02,01,16,35,6.30
2020,02,01,16,36,6.30
2020,02,01,16,37,6.20
2020,02,01,16,38,6.20
2020,02,01,16,39,6.20
2020,02,01,16,40,6.20
2020,02,01,16,41,6.20
2020,02,01,16,42,6.10
2020,02,01,16,43,6.10
2020,02,01,16,44,6.10
2020,02,01,16,45,6.10
2020,02,01,16,46,6.10
2020,02,01,16,47,6.00
2020,02,01,16,48,6.00
2020,02,01,16,49,6.00
2020,02,01,16,50,5.90
2020,02,01,16,51,5.90
2020,02,01,16,52,5.90
2020,02,01,16,53,5.90
2020,02,01,16,54,5.90
2020,02,01,16,55,5.80
2020,02,01,16,56,5.80
2020,02,01,16,57,5.80
2020,02,01,16,58,5.80
2020,02,01,16,59,5.80
2020,02,01,17,00,5.70
2020,02,01,17,01,5.70
2020,02,01,17,02,5.70
2020,02,01,17,03,5.70
2020,02,01,17,04,5.60
2020,02,01,17,05,5.60
2020,02,01,17,06,5.60
2020,02,01,17,07,5.60
2020,02,01,17,08,5.50
2020,02,01,17,09,5.50
2020,02,01,17,10,5.50
2020,02,01,17,11,5.50
2020,02,01,17,12,5.40
2020,02,01,17,13,5.40
2020,02,01,17,14,5.40
2020,02,01,17,15,5.40
2020,02,01,17,16,5.40
2020,02,01,17,17,5.40
2020,02,01,17,18,5.40
2020,02,01,17,19,5.40
2020,02,01,17,20,5.40
2020,02,01,17,21,5.30
2020,02,01,17,22,5.30
2020,02,01,17,23,5.30
2020,02,01,17,24,5.30
2020,02,01,17,25,5.30
2020,02,01,17,26,5.30
2020,02,01,17,27,5.30
2020,02,01,17,28,5.30
2020,02,01,17,29,5.30
2020,02,01,17,30,5.30
2020,02,01,17,31,5.20
2020,02,01,17,32,5.20
2020,02,01,17,33,5.20
2020,02,01,17,34,5.20
2020,02,01,17,35,5.20
2020,02,01,17,36,5.20
2020,02,01,17,37,5.20
2020,02,01,17,38,5.20
2020,02,01,17,39,5.20
2020,02,01,17,40,5.20
2020,02,01,17,41,5.20
2020,02,01,17,42,5.20
2020,02,01,17,43,5.20
2020,02,01,17,44,5.20
2020,02,01,17,45,5.20
2020,02,01,17,46,5.20
2020,02,01,17,47,5.20
2020,02,01,17,48,5.20
2020,02,01,17,49,5.20
2020,02,01,17,50,5.20